ヴァレス彗星

P/2010 H2 ( Vales ) 2017

English version
Home page
Updated on September 10, 2020

---------------------------------------------------------------------

・ プロフィール

・ 軌道要素

Epoch 2017 Sept. 4.0 TT = JDT 2458000.5                                         
T 2017 Sept. 16.07188 TT                                Rudenko                 
q   3.0965720            (2000.0)            P               Q                  
n   0.13064785     Peri.  129.55019     -0.94965105     +0.22113467             
a   3.8465188      Node    64.26659     -0.30415048     -0.82070795             
e   0.1949677      Incl.   14.26381     +0.07520224     -0.52681868             
P   7.54                                                                        
From 1642 observations 2010 Apr. 16-Sept. 4, mean residual 0".6.                

・ 光度変化

        H = 16.0  G = 0.15

---------------------------------------------------------------------

軌道要素はM.P.E.C. 2020-R04に掲載されたものです。
光度グラフはComet for Windowsで作成したものです。

---------------------------------------------------------------------

Copyright(C) Seiichi Yoshida (comet@aerith.net). All rights reserved.